Terminal Aerodrome Forecast
Issued by NWS Missoula, MT

Home | Current Version | Previous Version | Text Only | Print | Product List | Glossary On
Versions: 1 2 3 4 5 6 7 8 9 10 11 12 13 14 15 16 17
000
FTUS45 KMSO 271659 AAA
TAFBTM
TAF AMD
KBTM 271659Z 2717/2812 VRB03KT P6SM VCSH OVC050
      TEMPO 2717/2718 36005KT P6SM -TSRA SCT060CB
     FM272000 32008KT P6SM -SHRA BKN050 OVC080
     FM272300 24008KT P6SM VCSH BKN070=

USA.gov is the U.S. government's official web portal to all federal, state and local government web resources and services.